• Retour au menu

    Bienvenue à l'aéro-club Gascon

    Piloter un avion dans le Gers
    Piloter un avion dans le Gers

    L'aéro-club Gascon est basé sur l'aéroport Auch-Gers en plein cœur du Gers et de la Gascogne.
    Affilié à la FFA, il accueille des passionnés d'aéronautique qui peuvent y apprendre et pratiquer l'art du pilotage.


    Apprendre à piloter
    Apprendre à piloter

    Que l'on veuille piloter un avion pour le plaisir ou pour en faire son métier, il faut commencer par les bases du pilotage.
    Pilotes amateurs ou professionnels, tous ont commencé par une formation de pilote privé, le plus fréquemment au sein d'un aéro-club.


    Le Gers vu du ciel
    Le Gers vu du ciel

    Réalisez votre rêve et faites le plein de sensations en effectuant un baptème de l'air en Gascogne.
    D'une durée d'une demi-heure et pour un coût de 75 € le vol, vous partirez à la découverte du ciel aux côtés d'un pilote professionnel !

    Les News

    27
    nov

    Formation réglementation


    Soirée thématique sur la réglementation aéronautique. A l'issue un apératif et un repas seront pris au restaurant panoramique TABLO à Auch.

    5-6
    sep

    Foire du Sport & de la Culture


    L'aéro-club Gascon sera présent lors du week-end de la Foire du Sport & de la Culture organisé par l'OMS d'Auch.
    N'hésitez pas à venir nous rencontrer afin d'obtenir tous les renseignements que vous souhaitez sur nos formations.

    27
    jun

    Jour le plus long


    L'objectif est de faire voler un maximum de membres de l'aéro-club au cours de la journée, quelle que soit leur expérience.
    Les élèves-pilotes y participent en instruction ou en solo si autorisé.

    24
    avr

    Formation météorologique


    Soirée thématique sur la météorologie aéronautique animée par Denis, ingénieur Météo-France et pilote.

    10
    avr

    Assemblée générale 2015


    Rendez-vous à 18 heures 30 dans les locaux de l'aéro-club pour l'assemblée générale 2015.

  • Retour au menu

    PPL(A)

    PPL(A)

    La licence de pilote privé avion PPL(A) est une licence européenne qui permet à son titulaire d'exercer les fonctions de commandant de bord de tout avion effectuant des vols non rémunérés, et pour lequel il possède les qualifications requises.

    en savoir plus

    LAPL

    LAPL

    La licence LAPL est une licence européenne non reconnue par l'OACI qui permet à son titulaire d'exercer les fonctions de commandant de bord sur des avions monomoteur à pistons d'une masse maximale de 2 tonnes, transportant 3 passagers maximum.

    en savoir plus

    Vol de nuit

    Vol de nuit

    L'aptitude au vol de nuit est une qualification qui permet à son titulaire d'exercer tous les privilèges du PPL(A) de nuit, mais également d'accéder à une formation de pilote professionnel et de vols aux instruments (IFR).

    en savoir plus
  • Retour

    PPL(A)

    La licence de pilote privé avion PPL(A) est une licence européenne qui permet à son titulaire d'exercer les fonctions de commandant de bord de tout avion effectuant des vols non rémunérés, et pour lequel il possède les qualifications requises.

    La formation se compose d'une partie théorique et d'une partie pratique, chacune étant sanctionnée par un examen.

    L'apprentissage théorique et pratique se fait en parallèle sur une période de 3 à 18 mois selon vos disponibilités, pour un coût moyen de 8000 €.

    Pour accéder à la formation il faut :
    - être âgé de 16 ans lors du premier vol seul à bord (la formation peut débuter avant cet âge) ;
    - avoir satisfait à une visite médicale effectuée par un médecin aéronautique agréé.

    La préparation à l'examen théorique se fait au sein de l'aéroclub Gascon, soit en salle (100 heures de cours), soit en e-Learning en partenariat avec l'Institut Mermoz.

    L'examen théorique comporte 2 modules regroupant 9 matières, et se présente sous forme de QCM (120 questions) auxquelles il faut un taux de réussite de 75 %.

    Les séances de formation pratique se composent d'un briefing avant le vol, du vol puis d'un débriefing.

    Au cours de cette formation, vous apprendrez les bases du pilotage ainsi que les différentes techniques de navigation et vous bénéficierez d'une initiation au vol sans visibilité.

    Pour se présenter au test pratique PPL(A), les candidats doivent avoir 17 ans révolus et avoir effectué au moins 45 heures d'instruction sur avion dont 25 heures de vol en double commande avec instructeur et 10 heures de vol en solo supervisé dont 5 heures de vol sur la campagne avec un vol de navigation d'un minimum de 150 Nm avec 2 atterrissages intermédiaires complets.

    A l'issue du PPL(A), le pilote peut obtenir des qualifications supplémentaires permettant de voler la nuit, de voler aux instruments ou d'utiliser des avions plus complexes.

  • Retour

    LAPL

    La licence LAPL est une licence européenne non reconnue par l'OACI qui permet à son titulaire d'exercer les fonctions de commandant de bord sur des avions monomoteur à pistons d'une masse maximale de 2 tonnes, transportant 3 passagers maximum.

    Néanmoins, les titulaires d'une licence LAPL ne peuvent transporter des passagers qu'une fois qu'ils ont effectué, après la délivrance de la licence, 10 heures de vol en qualité de commandant de bord.

    La formation se compose d'une partie théorique et d'une partie pratique, chacune étant sanctionnée par un examen.

    L'apprentissage théorique et pratique se fait en parallèle sur une période de 3 à 18 mois selon vos disponibilités, pour un coût moyen de 6500 €.

    Pour accéder à la formation il faut :
    - être âgé de 16 ans lors du premier vol seul à bord (la formation peut débuter avant cet âge) ;
    - avoir satisfait à une visite médicale effectuée par un médecin aéronautique agréé.

    La préparation à l'examen théorique se fait au sein de l'aéroclub Gascon, soit en salle (100 heures de cours), soit en e-Learning en partenariat avec l'Institut Mermoz.

    L'examen théorique, identique à celui du PPL(A), comporte 2 modules regroupant 9 matières, et se présente sous forme de QCM (120 questions) auxquelles il faut un taux de réussite de 75 %.

    Les séances de formation pratique se composent d'un briefing avant le vol, du vol puis d'un débriefing.

    Au cours de cette formation, vous apprendrez les bases du pilotage ainsi que les différentes techniques de navigation.

    Pour se présenter au test pratique LAPL, les candidats doivent avoir 17 ans révolus et avoir effectué au moins 30 heures d'instruction sur avion dont 15 heures de vol en double commande avec instructeur et 6 heures de vol en solo supervisé dont 3 heures de vol sur la campagne avec un vol de navigation d'un minimum de 80 Nm avec 1 atterrissage complet sur un aérodrome autre que celui de départ.

  • Retour

    Vol de nuit

    L'aptitude au vol de nuit est une qualification qui permet à son titulaire d'exercer tous les privilèges du PPL(A) de nuit, mais également d'accéder à une formation de pilote professionnel et de vols aux instruments (IFR).

    Cette formation, qui fait appel à d'autres références que celles utilisées habituellement par le pilote VFR, est également utile lorsque les conditions de vol sont dégradées car le pilotage devra alors être basé sur les instruments et la radionavigation pour déterminer l'attitude et la position de l'avion.

    Pour accéder à la formation il faut :
    - être titulaire d'un certificat médical de classe LAPL, 1 ou 2 valide ;
    - être titulaire d'une licence PPL(A) et d'une qualification SEP(T) en état de validité,
    ou
    - être titulaire d'une licence LAPL répondant aux conditions d'expérience récente (FCL 140 A).
    Dans ce cas, le pilote devra avoir effectué la formation de base au vol aux instruments nécessaire à la délivrance du PPL(A).

    La formation se compose d'une partie théorique et d'une partie pratique, validées par l'instructeur en charge de la formation.

    Pour se voir délivrer la qualification vol de nuit, le pilote doit effectuer au minimum 5 heures de vol de nuit dont au moins 3 heures d'instruction en double commande, incluant au moins 1 heure de navigation en campagne avec au minimum 1 vol d'au-moins 50 km, ainsi que 5 décollages et 5 atterrissages complets en solo.

  • Retour au menu

    Voler à Auch

    Voler à Auch
    L'aéroport Auch - Gers

    Situé au Nord de la ville de Auch, l'aéroport Auch-Gers dispose d'une piste revêtue de 1900m, équipée pour le VFR de nuit.
    Un service AFIS rendu aux vols VFR et IFR, un STAP et un PCL permettent d'utiliser toutes les fonctionnalités de la piste.


    Robin DR 400/140B
    Robin DR 400/140B

    Equipé VFR de nuit et disposant d'une autonomie de 4 h 30, le DR 400 est adapté aux vols d'instruction ainsi qu'aux voyages.
    Au 1er mai 2014, le tarif de l'heure de vol est de 130 € pour les pilotes brevetés et de 145 € pour les élèves-pilotes.


    METAR et TAF
    Messages METAR et TAF

    Sélection de messages METAR et TAF du grand Sud-Ouest


    Cliquer pour afficher


    Accès membres








  • Retour

    Messages METAR et TAF

    Agen La Garenne - LFBA
    METAR LFBA 060830Z AUTO 11008KT CAVOK 06/04 Q1018=
    TAF indisponible

    Bergerac Roumanière - LFBE
    METAR LFBE 060830Z AUTO 14009KT CAVOK 08/06 Q1017=
    TAF indisponible

    Biarritz Bayonne Anglet - LFBZ
    METAR LFBZ 060830Z AUTO 19006KT CAVOK 12/01 Q1016=
    TAF TAF LFBZ 060500Z 0606/0706 15005KT CAVOK BECMG 0611/0613 20015G25KT PROB30 TEMPO 0617/0621 20018G35KT BECMG 0621/0623 28015G35KT 3000 RA BKN010 OVC030 PROB40 TEMPO 0704/0706 27020G50KT=

    Bordeaux Mérignac - LFBD
    METAR LFBD 060830Z AUTO 15007KT CAVOK 07/06 Q1016=
    TAF AMD LFBD 060743Z 0607/0712 14013KT CAVOK BECMG 0622/0624 26015G25KT 5000 -RA BKN030 TEMPO 0700/0701 3000 RA BKN015 BECMG 0701/0703 9999 NSW BECMG 0704/0706 24012KT PROB40 0703/0712 4000 -SHRA BKN025TCU TX16/0614Z TN05/0608Z=

    Mont de Marsan - LFBM
    METAR LFBM 060830Z AUTO 10004KT 080V140 CAVOK 05/04 Q1017=
    TAF TAF LFBM 060500Z 0606/0706 09005KT CAVOK PROB30 TEMPO 0606/0607 3000 MIFG BECMG 0621/0623 24010G25KT 5000 -RA BKN030 TEMPO 0621/0623 18015G35KT TEMPO 0700/0703 3000 RA BKN010 BECMG 0704/0706 9999 NSW=

    Pau Pyrénées - LFBP
    METAR LFBP 060830Z AUTO 00000KT CAVOK 05/02 Q1016=
    TAF LFBP 060500Z 0606/0706 14005KT CAVOK PROB40 TEMPO 0618/0621 18015G25KT BECMG 0623/0624 29015KT 3000 -RA BKN007 OVC020 PROB40 TEMPO 0700/0704 27015G35KT=

    Tarbes Lourdes Pyrénées - LFBT
    METAR LFBT 060830Z AUTO 17004KT CAVOK 06/02 Q1017=
    TAF LFBT 060500Z 0606/0706 18010KT CAVOK PROB40 TEMPO 0615/0621 20017G30KT BECMG 0623/0701 3000 -RA BKN008 BKN020 PROB40 TEMPO 0700/0702 27015G35KT=

    Toulouse Blagnac - LFBO
    METAR LFBO 060830Z AUTO 13007KT CAVOK 09/07 Q1018=
    TAF LFBO 060500Z 0606/0712 11008KT 9999 FEW009 PROB40 TEMPO 0606/0610 BKN009 BECMG 0610/0612 14015G25KT BECMG 0700/0702 27012KT TEMPO 0702/0706 28015G25KT 4000 RA BKN012 TEMPO 0709/0712 26015G25KT 3000 SHRA BKN015TCU=

  • Retour au menu

    Pour venir

    Place René Maret
    Aérodrome d'Auch-Gers
    32000 AUCH
    Téléphone : 05 62 63 37 23

    Nous contacter